Year,Month,Day,Hour,Minute,Value (Times are PST for temperature in C)
2009,09,25,00,00,10.10
2009,09,25,00,01,10.00
2009,09,25,00,02,10.00
2009,09,25,00,03,10.00
2009,09,25,00,04,10.00
2009,09,25,00,05,10.00
2009,09,25,00,06,10.00
2009,09,25,00,07,10.00
2009,09,25,00,08,10.00
2009,09,25,00,09,10.00
2009,09,25,00,10,10.00
2009,09,25,00,11,10.00
2009,09,25,00,12,10.00
2009,09,25,00,13,10.00
2009,09,25,00,14,10.00
2009,09,25,00,15,10.00
2009,09,25,00,16,10.00
2009,09,25,00,17,10.00
2009,09,25,00,18,10.00
2009,09,25,00,19,10.00
2009,09,25,00,20,10.00
2009,09,25,00,21,10.00
2009,09,25,00,22,10.00
2009,09,25,00,23,10.00
2009,09,25,00,24,10.00
2009,09,25,00,25,10.00
2009,09,25,00,26,10.00
2009,09,25,00,27,9.90
2009,09,25,00,28,9.90
2009,09,25,00,29,9.90
2009,09,25,00,30,9.90
2009,09,25,00,31,9.90
2009,09,25,00,32,9.90
2009,09,25,00,33,9.90
2009,09,25,00,34,9.90
2009,09,25,00,35,9.90
2009,09,25,00,36,9.80
2009,09,25,00,37,9.80
2009,09,25,00,38,9.80
2009,09,25,00,39,9.80
2009,09,25,00,40,9.80
2009,09,25,00,41,9.80
2009,09,25,00,42,9.80
2009,09,25,00,43,9.70
2009,09,25,00,44,9.70
2009,09,25,00,45,9.70
2009,09,25,00,46,9.70
2009,09,25,00,47,9.70
2009,09,25,00,48,9.70
2009,09,25,00,49,9.70
2009,09,25,00,50,9.70
2009,09,25,00,51,9.70
2009,09,25,00,52,9.70
2009,09,25,00,53,9.70
2009,09,25,00,54,9.70
2009,09,25,00,55,9.70
2009,09,25,00,56,9.70
2009,09,25,00,57,9.70
2009,09,25,00,58,9.70
2009,09,25,00,59,9.70
2009,09,25,01,00,9.70
2009,09,25,01,01,9.70
2009,09,25,01,02,9.70
2009,09,25,01,03,9.60
2009,09,25,01,04,9.60
2009,09,25,01,05,9.60
2009,09,25,01,06,9.60
2009,09,25,01,07,9.60
2009,09,25,01,08,9.60
2009,09,25,01,09,9.50
2009,09,25,01,10,9.50
2009,09,25,01,11,9.50
2009,09,25,01,12,9.50
2009,09,25,01,13,9.40
2009,09,25,01,14,9.40
2009,09,25,01,15,9.40
2009,09,25,01,16,9.40
2009,09,25,01,17,9.40
2009,09,25,01,18,9.40
2009,09,25,01,19,9.30
2009,09,25,01,20,9.30
2009,09,25,01,21,9.30
2009,09,25,01,22,9.30
2009,09,25,01,23,9.30
2009,09,25,01,24,9.30
2009,09,25,01,25,9.40
2009,09,25,01,26,9.40
2009,09,25,01,27,9.40
2009,09,25,01,28,9.40
2009,09,25,01,29,9.40
2009,09,25,01,30,9.40
2009,09,25,01,31,9.40
2009,09,25,01,32,9.30
2009,09,25,01,33,9.30
2009,09,25,01,34,9.30
2009,09,25,01,35,9.30
2009,09,25,01,36,9.30
2009,09,25,01,37,9.30
2009,09,25,01,38,9.30
2009,09,25,01,39,9.30
2009,09,25,01,40,9.20
2009,09,25,01,41,9.20
2009,09,25,01,42,9.20
2009,09,25,01,43,9.20
2009,09,25,01,44,9.20
2009,09,25,01,45,9.10
2009,09,25,01,46,9.10
2009,09,25,01,47,9.10
2009,09,25,01,48,9.10
2009,09,25,01,49,9.10
2009,09,25,01,50,9.00
2009,09,25,01,51,9.00
2009,09,25,01,52,9.00
2009,09,25,01,53,9.00
2009,09,25,01,54,9.10
2009,09,25,01,55,9.10
2009,09,25,01,56,9.10
2009,09,25,01,57,9.10
2009,09,25,01,58,9.10
2009,09,25,01,59,9.10
2009,09,25,02,00,9.00
2009,09,25,02,01,9.00
2009,09,25,02,02,9.00
2009,09,25,02,03,9.00
2009,09,25,02,04,9.00
2009,09,25,02,05,8.90
2009,09,25,02,06,8.90
2009,09,25,02,07,8.90
2009,09,25,02,08,8.90
2009,09,25,02,09,8.90
2009,09,25,02,10,8.90
2009,09,25,02,11,8.90
2009,09,25,02,12,8.90
2009,09,25,02,13,8.80
2009,09,25,02,14,8.80
2009,09,25,02,15,8.80
2009,09,25,02,16,8.80
2009,09,25,02,17,8.70
2009,09,25,02,18,8.70
2009,09,25,02,19,8.70
2009,09,25,02,20,8.70
2009,09,25,02,21,8.70
2009,09,25,02,22,8.70
2009,09,25,02,23,8.70
2009,09,25,02,24,8.70
2009,09,25,02,25,8.70
2009,09,25,02,26,8.70
2009,09,25,02,27,8.70
2009,09,25,02,28,8.70
2009,09,25,02,29,8.70
2009,09,25,02,30,8.70
2009,09,25,02,31,8.70
2009,09,25,02,32,8.70
2009,09,25,02,33,8.70
2009,09,25,02,34,8.70
2009,09,25,02,35,8.60
2009,09,25,02,36,8.60
2009,09,25,02,37,8.60
2009,09,25,02,38,8.60
2009,09,25,02,39,8.60
2009,09,25,02,40,8.60
2009,09,25,02,41,8.60
2009,09,25,02,42,8.50
2009,09,25,02,43,8.50
2009,09,25,02,44,8.50
2009,09,25,02,45,8.40
2009,09,25,02,46,8.40
2009,09,25,02,47,8.40
2009,09,25,02,48,8.40
2009,09,25,02,49,8.40
2009,09,25,02,50,8.30
2009,09,25,02,51,8.30
2009,09,25,02,52,8.30
2009,09,25,02,53,8.30
2009,09,25,02,54,8.30
2009,09,25,02,55,8.30
2009,09,25,02,56,8.20
2009,09,25,02,57,8.20
2009,09,25,02,58,8.20
2009,09,25,02,59,8.20
2009,09,25,03,00,8.20
2009,09,25,03,01,8.10
2009,09,25,03,02,8.10
2009,09,25,03,03,8.10
2009,09,25,03,04,8.10
2009,09,25,03,05,8.00
2009,09,25,03,06,8.00
2009,09,25,03,07,8.00
2009,09,25,03,08,7.90
2009,09,25,03,09,7.90
2009,09,25,03,10,7.90
2009,09,25,03,11,7.90
2009,09,25,03,12,7.90
2009,09,25,03,13,7.90
2009,09,25,03,14,7.90
2009,09,25,03,15,7.90
2009,09,25,03,16,7.90
2009,09,25,03,17,7.80
2009,09,25,03,18,7.80
2009,09,25,03,19,7.80
2009,09,25,03,20,7.80
2009,09,25,03,21,7.80
2009,09,25,03,22,7.80
2009,09,25,03,23,7.80
2009,09,25,03,24,7.80
2009,09,25,03,25,7.80
2009,09,25,03,26,7.80
2009,09,25,03,27,7.80
2009,09,25,03,28,7.80
2009,09,25,03,29,7.80
2009,09,25,03,30,7.80
2009,09,25,03,31,7.80
2009,09,25,03,32,7.80
2009,09,25,03,33,7.80
2009,09,25,03,34,7.70
2009,09,25,03,35,7.70
2009,09,25,03,36,7.70
2009,09,25,03,37,7.70
2009,09,25,03,38,7.70
2009,09,25,03,39,7.70
2009,09,25,03,40,7.70
2009,09,25,03,41,7.70
2009,09,25,03,42,7.70
2009,09,25,03,43,7.70
2009,09,25,03,44,7.70
2009,09,25,03,45,7.70
2009,09,25,03,46,7.70
2009,09,25,03,47,7.60
2009,09,25,03,48,7.60
2009,09,25,03,49,7.60
2009,09,25,03,50,7.60
2009,09,25,03,51,7.60
2009,09,25,03,52,7.60
2009,09,25,03,53,7.60
2009,09,25,03,54,7.50
2009,09,25,03,55,7.50
2009,09,25,03,56,7.50
2009,09,25,03,57,7.50
2009,09,25,03,58,7.50
2009,09,25,03,59,7.50
2009,09,25,04,00,7.40
2009,09,25,04,01,7.40
2009,09,25,04,02,7.40
2009,09,25,04,03,7.40
2009,09,25,04,06,7.40
2009,09,25,04,07,7.40
2009,09,25,04,08,7.40
2009,09,25,04,09,7.40
2009,09,25,04,10,7.40
2009,09,25,04,11,7.30
2009,09,25,04,12,7.30
2009,09,25,04,13,7.30
2009,09,25,04,14,7.30
2009,09,25,04,15,7.30
2009,09,25,04,16,7.30
2009,09,25,04,17,7.40
2009,09,25,04,18,7.40
2009,09,25,04,19,7.30
2009,09,25,04,20,7.30
2009,09,25,04,21,7.30
2009,09,25,04,22,7.30
2009,09,25,04,23,7.30
2009,09,25,04,24,7.30
2009,09,25,04,25,7.30
2009,09,25,04,26,7.30
2009,09,25,04,27,7.30
2009,09,25,04,28,7.30
2009,09,25,04,29,7.30
2009,09,25,04,30,7.20
2009,09,25,04,31,7.20
2009,09,25,04,32,7.20
2009,09,25,04,33,7.20
2009,09,25,04,34,7.20
2009,09,25,04,35,7.20
2009,09,25,04,36,7.20
2009,09,25,04,37,7.20
2009,09,25,04,38,7.20
2009,09,25,04,39,7.20
2009,09,25,04,40,7.30
2009,09,25,04,41,7.20
2009,09,25,04,42,7.20
2009,09,25,04,43,7.20
2009,09,25,04,44,7.20
2009,09,25,04,45,7.20
2009,09,25,04,46,7.20
2009,09,25,04,47,7.20
2009,09,25,04,48,7.20
2009,09,25,04,49,7.20
2009,09,25,04,50,7.20
2009,09,25,04,51,7.20
2009,09,25,04,52,7.20
2009,09,25,04,53,7.10
2009,09,25,04,54,7.10
2009,09,25,04,55,7.10
2009,09,25,04,56,7.10
2009,09,25,04,57,7.10
2009,09,25,04,58,7.10
2009,09,25,04,59,7.10
2009,09,25,05,00,7.10
2009,09,25,05,01,7.10
2009,09,25,05,02,7.10
2009,09,25,05,03,7.10
2009,09,25,05,04,7.10
2009,09,25,05,05,7.10
2009,09,25,05,06,7.10
2009,09,25,05,07,7.10
2009,09,25,05,08,7.10
2009,09,25,05,09,7.00
2009,09,25,05,10,7.00
2009,09,25,05,11,7.00
2009,09,25,05,12,7.00
2009,09,25,05,13,7.00
2009,09,25,05,14,7.00
2009,09,25,05,15,6.90
2009,09,25,05,16,6.90
2009,09,25,05,17,6.90
2009,09,25,05,18,6.90
2009,09,25,05,19,6.90
2009,09,25,05,20,6.90
2009,09,25,05,21,6.90
2009,09,25,05,22,6.90
2009,09,25,05,23,6.90
2009,09,25,05,24,6.90
2009,09,25,05,25,7.00
2009,09,25,05,26,6.90
2009,09,25,05,27,7.00
2009,09,25,05,28,7.00
2009,09,25,05,29,7.00
2009,09,25,05,30,7.00
2009,09,25,05,31,7.00
2009,09,25,05,32,7.00
2009,09,25,05,33,7.00
2009,09,25,05,34,7.00
2009,09,25,05,35,7.00
2009,09,25,05,36,7.00
2009,09,25,05,37,7.00
2009,09,25,05,38,7.00
2009,09,25,05,39,7.00
2009,09,25,05,40,7.00
2009,09,25,05,41,7.00
2009,09,25,05,42,7.00
2009,09,25,05,43,7.00
2009,09,25,05,44,7.00
2009,09,25,05,45,7.10
2009,09,25,05,46,7.10
2009,09,25,05,47,7.10
2009,09,25,05,48,7.10
2009,09,25,05,49,7.10
2009,09,25,05,50,7.20
2009,09,25,05,51,7.20
2009,09,25,05,52,7.30
2009,09,25,05,53,7.30
2009,09,25,05,54,7.30
2009,09,25,05,55,7.30
2009,09,25,05,56,7.30
2009,09,25,05,57,7.30
2009,09,25,05,58,7.40
2009,09,25,05,59,7.40
2009,09,25,06,00,7.40
2009,09,25,06,01,7.40
2009,09,25,06,02,7.40
2009,09,25,06,03,7.40
2009,09,25,06,04,7.40
2009,09,25,06,05,7.40
2009,09,25,06,06,7.40
2009,09,25,06,07,7.40
2009,09,25,06,08,7.40
2009,09,25,06,09,7.40
2009,09,25,06,10,7.50
2009,09,25,06,11,7.50
2009,09,25,06,12,7.60
2009,09,25,06,13,7.60
2009,09,25,06,14,7.60
2009,09,25,06,15,7.60
2009,09,25,06,16,7.60
2009,09,25,06,17,7.60
2009,09,25,06,18,7.60
2009,09,25,06,19,7.60
2009,09,25,06,20,7.50
2009,09,25,06,21,7.50
2009,09,25,06,22,7.40
2009,09,25,06,23,7.40
2009,09,25,06,24,7.40
2009,09,25,06,25,7.30
2009,09,25,06,26,7.30
2009,09,25,06,27,7.30
2009,09,25,06,28,7.30
2009,09,25,06,29,7.30
2009,09,25,06,30,7.30
2009,09,25,06,31,7.30
2009,09,25,06,32,7.30
2009,09,25,06,33,7.20
2009,09,25,06,34,7.20
2009,09,25,06,35,7.20
2009,09,25,06,36,7.20
2009,09,25,06,37,7.20
2009,09,25,06,38,7.20
2009,09,25,06,39,7.20
2009,09,25,06,40,7.20
2009,09,25,06,41,7.20
2009,09,25,06,42,7.20
2009,09,25,06,43,7.20
2009,09,25,06,44,7.20
2009,09,25,06,45,7.20
2009,09,25,06,46,7.20
2009,09,25,06,47,7.20
2009,09,25,06,48,7.20
2009,09,25,06,49,7.10
2009,09,25,06,50,7.10
2009,09,25,06,51,7.10
2009,09,25,06,52,7.20
2009,09,25,06,53,7.10
2009,09,25,06,54,7.10
2009,09,25,06,55,7.10
2009,09,25,06,56,7.10
2009,09,25,06,57,7.10
2009,09,25,06,58,7.10
2009,09,25,06,59,7.10
2009,09,25,07,00,7.10
2009,09,25,07,01,7.10
2009,09,25,07,02,7.10
2009,09,25,07,03,7.10
2009,09,25,07,04,7.10
2009,09,25,07,05,7.10
2009,09,25,07,06,7.10
2009,09,25,07,07,7.10
2009,09,25,07,08,7.10
2009,09,25,07,09,7.10
2009,09,25,07,10,7.10
2009,09,25,07,11,7.10
2009,09,25,07,12,7.10
2009,09,25,07,13,7.10
2009,09,25,07,14,7.10
2009,09,25,07,15,7.00
2009,09,25,07,16,7.10
2009,09,25,07,17,7.00
2009,09,25,07,18,7.00
2009,09,25,07,19,7.00
2009,09,25,07,20,7.00
2009,09,25,07,21,7.00
2009,09,25,07,22,7.00
2009,09,25,07,23,7.00
2009,09,25,07,24,7.00
2009,09,25,07,25,7.00
2009,09,25,07,26,7.00
2009,09,25,07,27,7.00
2009,09,25,07,28,7.10
2009,09,25,07,29,7.10
2009,09,25,07,30,7.10
2009,09,25,07,31,7.10
2009,09,25,07,32,7.10
2009,09,25,07,33,7.00
2009,09,25,07,34,7.00
2009,09,25,07,35,7.00
2009,09,25,07,36,7.00
2009,09,25,07,37,7.00
2009,09,25,07,38,7.00
2009,09,25,07,39,7.00
2009,09,25,07,40,7.10
2009,09,25,07,41,7.10
2009,09,25,07,42,7.20
2009,09,25,07,43,7.20
2009,09,25,07,44,7.20
2009,09,25,07,45,7.30
2009,09,25,07,46,7.30
2009,09,25,07,47,7.40
2009,09,25,07,48,7.40
2009,09,25,07,49,7.50
2009,09,25,07,50,7.50
2009,09,25,07,51,7.60
2009,09,25,07,52,7.60
2009,09,25,07,53,7.70
2009,09,25,07,54,7.70
2009,09,25,07,55,7.80
2009,09,25,07,56,7.80
2009,09,25,07,57,7.80
2009,09,25,07,58,7.90
2009,09,25,07,59,7.90
2009,09,25,08,00,8.00
2009,09,25,08,01,8.00
2009,09,25,08,02,8.10
2009,09,25,08,03,8.10
2009,09,25,08,04,8.20
2009,09,25,08,05,8.20
2009,09,25,08,06,8.30
2009,09,25,08,07,8.40
2009,09,25,08,08,8.40
2009,09,25,08,09,8.50
2009,09,25,08,10,8.50
2009,09,25,08,11,8.60
2009,09,25,08,12,8.60
2009,09,25,08,13,8.70
2009,09,25,08,14,8.70
2009,09,25,08,15,8.70
2009,09,25,08,16,8.80
2009,09,25,08,17,8.80
2009,09,25,08,18,8.90
2009,09,25,08,19,9.00
2009,09,25,08,20,9.10
2009,09,25,08,21,9.20
2009,09,25,08,22,9.30
2009,09,25,08,23,9.40
2009,09,25,08,24,9.50
2009,09,25,08,25,9.60
2009,09,25,08,26,9.70
2009,09,25,08,27,9.80
2009,09,25,08,28,9.90
2009,09,25,08,29,10.00
2009,09,25,08,30,10.10
2009,09,25,08,31,10.20
2009,09,25,08,32,10.20
2009,09,25,08,33,10.30
2009,09,25,08,34,10.40
2009,09,25,08,35,10.50
2009,09,25,08,36,10.60
2009,09,25,08,37,10.70
2009,09,25,08,38,10.80
2009,09,25,08,39,10.90
2009,09,25,08,40,11.00
2009,09,25,08,41,11.10
2009,09,25,08,42,11.20
2009,09,25,08,43,11.30
2009,09,25,08,44,11.40
2009,09,25,08,45,11.50
2009,09,25,08,46,11.60
2009,09,25,08,47,11.70
2009,09,25,08,48,11.80
2009,09,25,08,49,11.90
2009,09,25,08,50,12.00
2009,09,25,08,51,12.10
2009,09,25,08,52,12.20
2009,09,25,08,53,12.30
2009,09,25,08,54,12.30
2009,09,25,08,55,12.40
2009,09,25,08,56,12.50
2009,09,25,08,57,12.60
2009,09,25,08,58,12.60
2009,09,25,08,59,12.60
2009,09,25,09,00,12.60
2009,09,25,09,01,12.60
2009,09,25,09,02,12.60
2009,09,25,09,03,12.70
2009,09,25,09,04,12.70
2009,09,25,09,05,12.70
2009,09,25,09,06,12.80
2009,09,25,09,07,12.80
2009,09,25,09,08,12.90
2009,09,25,09,09,12.90
2009,09,25,09,10,12.90
2009,09,25,09,11,12.90
2009,09,25,09,12,12.90
2009,09,25,09,13,12.90
2009,09,25,09,14,13.00
2009,09,25,09,15,13.00
2009,09,25,09,16,13.00
2009,09,25,09,17,13.10
2009,09,25,09,18,13.10
2009,09,25,09,19,13.10
2009,09,25,09,20,13.20
2009,09,25,09,21,13.20
2009,09,25,09,22,13.30
2009,09,25,09,23,13.30
2009,09,25,09,24,13.40
2009,09,25,09,25,13.40
2009,09,25,09,26,13.40
2009,09,25,09,27,13.50
2009,09,25,09,28,13.50
2009,09,25,09,29,13.60
2009,09,25,09,30,13.70
2009,09,25,09,31,13.70
2009,09,25,09,32,13.80
2009,09,25,09,33,13.80
2009,09,25,09,34,13.90
2009,09,25,09,35,14.00
2009,09,25,09,36,14.10
2009,09,25,09,37,14.10
2009,09,25,09,38,14.20
2009,09,25,09,39,14.30
2009,09,25,09,40,14.30
2009,09,25,09,41,14.40
2009,09,25,09,42,14.50
2009,09,25,09,43,14.50
2009,09,25,09,44,14.60
2009,09,25,09,45,14.70
2009,09,25,09,46,14.80
2009,09,25,09,47,15.00
2009,09,25,09,48,15.00
2009,09,25,09,49,15.00
2009,09,25,09,50,15.00
2009,09,25,09,51,15.20
2009,09,25,09,52,15.30
2009,09,25,09,53,15.30
2009,09,25,09,54,15.40
2009,09,25,09,55,15.50
2009,09,25,09,56,15.50
2009,09,25,09,57,15.60
2009,09,25,09,58,15.70
2009,09,25,09,59,15.70
2009,09,25,10,00,15.80
2009,09,25,10,01,15.80
2009,09,25,10,02,15.90
2009,09,25,10,03,15.90
2009,09,25,10,04,16.00
2009,09,25,10,05,16.00
2009,09,25,10,06,16.10
2009,09,25,10,07,16.10
2009,09,25,10,08,16.20
2009,09,25,10,09,16.20
2009,09,25,10,10,16.30
2009,09,25,10,11,16.30
2009,09,25,10,12,16.30
2009,09,25,10,13,16.30
2009,09,25,10,14,16.40
2009,09,25,10,15,16.40
2009,09,25,10,16,16.40
2009,09,25,10,17,16.40
2009,09,25,10,18,16.40
2009,09,25,10,19,16.50
2009,09,25,10,20,16.50
2009,09,25,10,21,16.50
2009,09,25,10,22,16.50
2009,09,25,10,23,16.50
2009,09,25,10,24,16.50
2009,09,25,10,25,16.40
2009,09,25,10,26,16.40
2009,09,25,10,27,16.40
2009,09,25,10,28,16.40
2009,09,25,10,29,16.40
2009,09,25,10,30,16.40
2009,09,25,10,31,16.50
2009,09,25,10,32,16.50
2009,09,25,10,33,16.60
2009,09,25,10,34,16.60
2009,09,25,10,35,16.70
2009,09,25,10,36,16.70
2009,09,25,10,37,16.80
2009,09,25,10,38,16.80
2009,09,25,10,39,16.90
2009,09,25,10,40,16.90
2009,09,25,10,41,16.90
2009,09,25,10,42,16.90
2009,09,25,10,43,17.00
2009,09,25,10,44,17.00
2009,09,25,10,45,17.10
2009,09,25,10,46,17.10
2009,09,25,10,47,17.20
2009,09,25,10,48,17.20
2009,09,25,10,49,17.20
2009,09,25,10,50,17.30
2009,09,25,10,51,17.30
2009,09,25,10,52,17.40
2009,09,25,10,53,17.50
2009,09,25,10,54,17.50
2009,09,25,10,55,17.50
2009,09,25,10,56,17.40
2009,09,25,10,57,17.40
2009,09,25,10,58,17.40
2009,09,25,10,59,17.40
2009,09,25,11,00,17.50
2009,09,25,11,01,17.50
2009,09,25,11,02,17.50
2009,09,25,11,03,17.60
2009,09,25,11,04,17.70
2009,09,25,11,05,17.70
2009,09,25,11,06,17.70
2009,09,25,11,07,17.60
2009,09,25,11,08,17.60
2009,09,25,11,09,17.60
2009,09,25,11,10,17.60
2009,09,25,11,11,17.60
2009,09,25,11,12,17.60
2009,09,25,11,13,17.60
2009,09,25,11,14,17.70
2009,09,25,11,15,17.70
2009,09,25,11,16,17.70
2009,09,25,11,17,17.70
2009,09,25,11,18,17.70
2009,09,25,11,19,17.70
2009,09,25,11,20,17.70
2009,09,25,11,21,17.70
2009,09,25,11,22,17.80
2009,09,25,11,23,17.80
2009,09,25,11,24,17.80
2009,09,25,11,25,17.90
2009,09,25,11,26,17.90
2009,09,25,11,27,17.90
2009,09,25,11,28,17.90
2009,09,25,11,29,17.80
2009,09,25,11,30,17.90
2009,09,25,11,31,17.90
2009,09,25,11,32,18.00
2009,09,25,11,33,18.10
2009,09,25,11,34,18.10
2009,09,25,11,35,18.10
2009,09,25,11,36,18.10
2009,09,25,11,37,18.10
2009,09,25,11,38,18.20
2009,09,25,11,39,18.30
2009,09,25,11,40,18.30
2009,09,25,11,41,18.30
2009,09,25,11,42,18.40
2009,09,25,11,43,18.40
2009,09,25,11,44,18.40
2009,09,25,11,45,18.40
2009,09,25,11,46,18.40
2009,09,25,11,47,18.30
2009,09,25,11,48,18.30
2009,09,25,11,49,18.30
2009,09,25,11,50,18.30
2009,09,25,11,51,18.30
2009,09,25,11,52,18.30
2009,09,25,11,53,18.30
2009,09,25,11,54,18.30
2009,09,25,11,55,18.30
2009,09,25,11,56,18.30
2009,09,25,11,57,18.30
2009,09,25,11,58,18.30
2009,09,25,11,59,18.40
2009,09,25,12,00,18.40
2009,09,25,12,01,18.50
2009,09,25,12,02,18.60
2009,09,25,12,03,18.60
2009,09,25,12,04,18.60
2009,09,25,12,05,18.60
2009,09,25,12,06,18.60
2009,09,25,12,07,18.60
2009,09,25,12,08,18.50
2009,09,25,12,09,18.50
2009,09,25,12,10,18.50
2009,09,25,12,11,18.40
2009,09,25,12,12,18.40
2009,09,25,12,13,18.40
2009,09,25,12,14,18.40
2009,09,25,12,15,18.40
2009,09,25,12,16,18.50
2009,09,25,12,17,18.50
2009,09,25,12,18,18.60
2009,09,25,12,19,18.60
2009,09,25,12,20,18.60
2009,09,25,12,21,18.70
2009,09,25,12,22,18.70
2009,09,25,12,23,18.70
2009,09,25,12,24,18.80
2009,09,25,12,25,18.80
2009,09,25,12,26,18.80
2009,09,25,12,27,18.80
2009,09,25,12,28,18.80
2009,09,25,12,29,18.80
2009,09,25,12,30,18.90
2009,09,25,12,31,18.90
2009,09,25,12,32,18.90
2009,09,25,12,33,18.90
2009,09,25,12,34,19.00
2009,09,25,12,35,19.00
2009,09,25,12,36,19.10
2009,09,25,12,37,19.10
2009,09,25,12,38,19.20
2009,09,25,12,39,19.20
2009,09,25,12,40,19.10
2009,09,25,12,41,19.10
2009,09,25,12,42,19.00
2009,09,25,12,43,19.00
2009,09,25,12,44,19.10
2009,09,25,12,45,19.10
2009,09,25,12,46,19.10
2009,09,25,12,47,19.10
2009,09,25,12,48,19.10
2009,09,25,12,49,19.10
2009,09,25,12,50,19.20
2009,09,25,12,51,19.20
2009,09,25,12,52,19.20
2009,09,25,12,53,19.20
2009,09,25,12,54,19.20
2009,09,25,12,55,19.20
2009,09,25,12,56,19.20
2009,09,25,12,57,19.20
2009,09,25,12,58,19.20
2009,09,25,12,59,19.30
2009,09,25,13,00,19.30
2009,09,25,13,01,19.30
2009,09,25,13,02,19.30
2009,09,25,13,03,19.40
2009,09,25,13,04,19.40
2009,09,25,13,05,19.40
2009,09,25,13,06,19.50
2009,09,25,13,07,19.50
2009,09,25,13,08,19.50
2009,09,25,13,09,19.50
2009,09,25,13,10,19.40
2009,09,25,13,11,19.40
2009,09,25,13,12,19.50
2009,09,25,13,13,19.50
2009,09,25,13,14,19.60
2009,09,25,13,15,19.60
2009,09,25,13,16,19.70
2009,09,25,13,17,19.70
2009,09,25,13,18,19.70
2009,09,25,13,19,19.80
2009,09,25,13,20,19.80
2009,09,25,13,21,19.80
2009,09,25,13,22,19.70
2009,09,25,13,23,19.60
2009,09,25,13,24,19.60
2009,09,25,13,25,19.60
2009,09,25,13,26,19.50
2009,09,25,13,27,19.50
2009,09,25,13,28,19.50
2009,09,25,13,29,19.60
2009,09,25,13,30,19.60
2009,09,25,13,31,19.60
2009,09,25,13,32,19.60
2009,09,25,13,33,19.60
2009,09,25,13,34,19.60
2009,09,25,13,35,19.60
2009,09,25,13,36,19.50
2009,09,25,13,37,19.50
2009,09,25,13,38,19.50
2009,09,25,13,39,19.40
2009,09,25,13,40,19.40
2009,09,25,13,41,19.30
2009,09,25,13,42,19.30
2009,09,25,13,43,19.40
2009,09,25,13,44,19.40
2009,09,25,13,45,19.50
2009,09,25,13,46,19.50
2009,09,25,13,47,19.60
2009,09,25,13,48,19.60
2009,09,25,13,49,19.70
2009,09,25,13,50,19.80
2009,09,25,13,51,19.90
2009,09,25,13,52,19.90
2009,09,25,13,53,19.90
2009,09,25,13,54,19.90
2009,09,25,13,55,19.90
2009,09,25,13,56,19.90
2009,09,25,13,57,19.90
2009,09,25,13,58,19.90
2009,09,25,13,59,19.90
2009,09,25,14,00,19.90
2009,09,25,14,01,19.90
2009,09,25,14,02,19.90
2009,09,25,14,03,19.90
2009,09,25,14,04,19.90
2009,09,25,14,05,19.90
2009,09,25,14,06,19.80
2009,09,25,14,07,19.80
2009,09,25,14,08,19.80
2009,09,25,14,09,19.80
2009,09,25,14,10,19.90
2009,09,25,14,11,19.90
2009,09,25,14,12,19.90
2009,09,25,14,13,19.90
2009,09,25,14,14,19.90
2009,09,25,14,15,19.90
2009,09,25,14,16,19.90
2009,09,25,14,17,19.90
2009,09,25,14,18,19.90
2009,09,25,14,19,19.90
2009,09,25,14,20,19.90
2009,09,25,14,21,19.90
2009,09,25,14,22,19.90
2009,09,25,14,23,19.90
2009,09,25,14,24,19.90
2009,09,25,14,25,19.90
2009,09,25,14,26,19.90
2009,09,25,14,27,19.90
2009,09,25,14,28,19.90
2009,09,25,14,29,19.80
2009,09,25,14,30,19.80
2009,09,25,14,31,19.80
2009,09,25,14,32,19.80
2009,09,25,14,33,19.90
2009,09,25,14,34,19.90
2009,09,25,14,35,20.00
2009,09,25,14,36,19.90
2009,09,25,14,37,19.90
2009,09,25,14,38,19.90
2009,09,25,14,39,19.90
2009,09,25,14,40,19.90
2009,09,25,14,41,19.90
2009,09,25,14,42,20.00
2009,09,25,14,43,20.00
2009,09,25,14,44,20.00
2009,09,25,14,45,20.00
2009,09,25,14,46,20.00
2009,09,25,14,47,20.10
2009,09,25,14,48,20.00
2009,09,25,14,49,20.00
2009,09,25,14,50,19.90
2009,09,25,14,51,20.00
2009,09,25,14,52,20.00
2009,09,25,14,53,20.10
2009,09,25,14,54,20.20
2009,09,25,14,55,20.20
2009,09,25,14,56,20.30
2009,09,25,14,57,20.30
2009,09,25,14,58,20.40
2009,09,25,14,59,20.40
2009,09,25,15,00,20.40
2009,09,25,15,01,20.30
2009,09,25,15,02,20.30
2009,09,25,15,03,20.20
2009,09,25,15,04,20.20
2009,09,25,15,05,20.20
2009,09,25,15,06,20.10
2009,09,25,15,07,20.20
2009,09,25,15,08,20.20
2009,09,25,15,09,20.20
2009,09,25,15,10,20.30
2009,09,25,15,11,20.30
2009,09,25,15,12,20.30
2009,09,25,15,13,20.30
2009,09,25,15,14,20.30
2009,09,25,15,15,20.30
2009,09,25,15,16,20.40
2009,09,25,15,17,20.40
2009,09,25,15,18,20.40
2009,09,25,15,19,20.50
2009,09,25,15,20,20.50
2009,09,25,15,21,20.60
2009,09,25,15,22,20.60
2009,09,25,15,23,20.70
2009,09,25,15,24,20.70
2009,09,25,15,25,20.80
2009,09,25,15,26,20.80
2009,09,25,15,27,20.80
2009,09,25,15,28,20.80
2009,09,25,15,29,20.90
2009,09,25,15,30,20.90
2009,09,25,15,31,20.90
2009,09,25,15,32,20.90
2009,09,25,15,33,21.00
2009,09,25,15,34,21.10
2009,09,25,15,35,21.10
2009,09,25,15,36,21.20
2009,09,25,15,37,21.20
2009,09,25,15,38,21.20
2009,09,25,15,39,21.20
2009,09,25,15,40,21.10
2009,09,25,15,41,21.10
2009,09,25,15,42,21.10
2009,09,25,15,43,21.00
2009,09,25,15,44,21.00
2009,09,25,15,45,21.00
2009,09,25,15,46,21.00
2009,09,25,15,47,21.00
2009,09,25,15,48,20.90
2009,09,25,15,49,20.90
2009,09,25,15,50,20.90
2009,09,25,15,51,20.90
2009,09,25,15,52,20.90
2009,09,25,15,53,20.90
2009,09,25,15,54,20.90
2009,09,25,15,55,20.90
2009,09,25,15,56,20.90
2009,09,25,15,57,20.90
2009,09,25,15,58,21.00
2009,09,25,15,59,21.00
2009,09,25,16,00,21.00
2009,09,25,16,01,21.00
2009,09,25,16,02,20.90
2009,09,25,16,03,20.90
2009,09,25,16,04,20.90
2009,09,25,16,05,20.90
2009,09,25,16,06,21.00
2009,09,25,16,07,21.00
2009,09,25,16,08,21.10
2009,09,25,16,09,21.10
2009,09,25,16,10,21.10
2009,09,25,16,11,21.10
2009,09,25,16,12,21.10
2009,09,25,16,13,21.10
2009,09,25,16,14,21.10
2009,09,25,16,15,21.10
2009,09,25,16,16,21.10
2009,09,25,16,17,21.10
2009,09,25,16,18,21.20
2009,09,25,16,19,21.20
2009,09,25,16,20,21.20
2009,09,25,16,21,21.10
2009,09,25,16,22,21.10
2009,09,25,16,23,21.10
2009,09,25,16,24,21.10
2009,09,25,16,25,21.10
2009,09,25,16,26,21.10
2009,09,25,16,27,21.20
2009,09,25,16,28,21.20
2009,09,25,16,29,21.20
2009,09,25,16,30,21.20
2009,09,25,16,31,21.30
2009,09,25,16,32,21.30
2009,09,25,16,33,21.30
2009,09,25,16,34,21.40
2009,09,25,16,35,21.40
2009,09,25,16,36,21.40
2009,09,25,16,37,21.50
2009,09,25,16,38,21.60
2009,09,25,16,39,21.60
2009,09,25,16,40,21.60
2009,09,25,16,41,21.60
2009,09,25,16,42,21.50
2009,09,25,16,43,21.50
2009,09,25,16,44,21.50
2009,09,25,16,45,21.40
2009,09,25,16,46,21.40
2009,09,25,16,47,21.40
2009,09,25,16,48,21.30
2009,09,25,16,49,21.30
2009,09,25,16,50,21.20
2009,09,25,16,51,21.20
2009,09,25,16,52,21.20
2009,09,25,16,53,21.30
2009,09,25,16,54,21.30
2009,09,25,16,55,21.30
2009,09,25,16,56,21.30
2009,09,25,16,57,21.30
2009,09,25,16,58,21.30
2009,09,25,16,59,21.30
2009,09,25,17,00,21.30
2009,09,25,17,01,21.30
2009,09,25,17,02,21.30
2009,09,25,17,03,21.20
2009,09,25,17,04,21.20
2009,09,25,17,05,21.20
2009,09,25,17,06,21.20
2009,09,25,17,07,21.20
2009,09,25,17,08,21.20
2009,09,25,17,09,21.20
2009,09,25,17,10,21.20
2009,09,25,17,11,21.20
2009,09,25,17,12,21.20
2009,09,25,17,13,21.20
2009,09,25,17,14,21.30
2009,09,25,17,15,21.30
2009,09,25,17,16,21.30
2009,09,25,17,17,21.30
2009,09,25,17,18,21.30
2009,09,25,17,19,21.30
2009,09,25,17,20,21.40
2009,09,25,17,21,21.40
2009,09,25,17,22,21.30
2009,09,25,17,23,21.30
2009,09,25,17,24,21.30
2009,09,25,17,25,21.30
2009,09,25,17,26,21.30
2009,09,25,17,27,21.40
2009,09,25,17,28,21.40
2009,09,25,17,29,21.40
2009,09,25,17,30,21.40
2009,09,25,17,31,21.40
2009,09,25,17,32,21.40
2009,09,25,17,33,21.30
2009,09,25,17,34,21.30
2009,09,25,17,35,21.20
2009,09,25,17,36,21.20
2009,09,25,17,37,21.20
2009,09,25,17,38,21.10
2009,09,25,17,39,21.10
2009,09,25,17,40,21.00
2009,09,25,17,41,20.90
2009,09,25,17,42,20.80